Back to catalog

SCOUT B DEB

LostUNKNOWN
NORAD 28799·DEBRIS·🇺🇸 United States

Launched Aug 10, 1965 from Wallops Flight Facility

Loading…

Next Passes (next 24 hours)

TLE

StaleSource: Space-Track

Epoch: Jun 26, 2021, 16:29 UTC

1 28799U 65063J   21177.68695834 -.00002047  00000-0 -12256-1 0  9994
2 28799  69.1745 334.4389 0737195 345.7556  24.5355 11.94701876720748

Track SCOUT B DEB in real time with AllMySat

Download on the App Store